Regional Weather Roundup
Issued by NWS

Home | Current Version | Previous Version | Text Only | Print | Product List | Glossary On
Versions: 1 2 3 4 5 6 7 8 9 10 11 12 13 14 15 16 17 18 19 20 21 22 23 24 25 26 27 28 29 30 31 32 33 34 35 36 37 38 39 40 41 42 43 44 45 46 47 48 49 50
000
ASUS45 KPSR 301510
RWRAZ

ARIZONA HOURLY REGIONAL WEATHER ROUNDUP
NATIONAL WEATHER SERVICE PHOENIX AZ
800 AM MST THU MAR 30 2017

NOTE: FAIR INDICATES FEW OR NO CLOUDS BELOW 12,000 FEET WITH NO
SIGNIFICANT WEATHER AND/OR OBSTRUCTIONS TO VISIBILITY.

AZZ001>003-036-301600-
NORTHWEST ARIZONA

CITY           SKY/WX    TMP DP  RH WIND       PRES   REMARKS
BULLHEAD CITY  MOSUNNY   57  34  41 CALM      29.84F
KINGMAN        MOSUNNY   58  15  18 SE7       29.92S
$$

AZZ004>008-015-016-018-301600-
NORTH CENTRAL ARIZONA

CITY           SKY/WX    TMP DP  RH WIND       PRES   REMARKS
GRAND CANYON   SUNNY     44  28  53 CALM      30.02F
WILLIAMS       PTSUNNY   52  21  30 S14       30.03F
PRESCOTT       MOSUNNY   54  26  34 SE6       30.00F
FLAGSTAFF      MOSUNNY   41  26  55 SW9       30.05F
PAYSON         SUNNY     52  30  43 CALM      30.07S
PAGE           MOSUNNY   53  27  36 SE3       29.91F
$$

AZZ009>014-017-301600-
NORTHEAST ARIZONA

CITY           SKY/WX    TMP DP  RH WIND       PRES   REMARKS
WINSLOW        SUNNY     44  24  45 E9        29.99F
SAINT JOHNS    SUNNY     46  25  43 CALM      30.02S
WINDOW ROCK    SUNNY     36  23  59 VRB5      30.03F WCI  32
SHOW LOW       SUNNY     48  21  34 S13G18    30.07S
$$

AZZ023-301600-
GREATER PHOENIX AREA

CITY           SKY/WX    TMP DP  RH WIND       PRES   REMARKS
PHOENIX        MOSUNNY   63  31  30 E9        29.90F
BUCKEYE        SUNNY     59  34  38 CALM      29.91S
GLENDALE       MOSUNNY   61  34  36 CALM      29.93R
LUKE AFB       SUNNY     61  39  45 N3        29.90S
DEER VALLEY    SUNNY     64  29  26 E5        29.91S
SCOTTSDALE     SUNNY     63  34  33 VRB3      29.93S
MESA-FALCON    SUNNY    N/A N/A N/A N12       29.90S
MESA-GATEWAY   MOSUNNY   57  34  41 SE7       29.93
CHANDLER       SUNNY     61  36  39 CALM      29.92S
$$

AZZ027-028-301600-
SOUTHWEST MARICOPA COUNTY AND PINAL COUNTY

CITY           SKY/WX    TMP DP  RH WIND       PRES   REMARKS
CASA GRANDE    NOT AVBL
GILA BEND      SUNNY     64  18  17 CALM      29.88F
$$

AZZ503-504-507>509-301600-
SOUTHEAST ARIZONA

CITY           SKY/WX    TMP DP  RH WIND       PRES   REMARKS
TUCSON         SUNNY     60  24  25 SE14      30.00S
DAVIS-MONTHAN  SUNNY     60  27  28 SE7       30.00R
RYAN FIELD     SUNNY     54  28  37 SE6       30.00S
NOGALES        SUNNY     52  21  29 CALM      30.05R
SIERRA VISTA   SUNNY     61  22  22 SE8       30.07S
DOUGLAS        SUNNY     52  26  36 CALM      30.07S
SAFFORD        SUNNY     58  27  30 E7        30.00S
$$

AZZ020-021-025-026-031-301600-
SOUTHWEST ARIZONA

CITY           SKY/WX    TMP DP  RH WIND       PRES   REMARKS
YUMA           MOSUNNY   67  31  26 SE6       29.85S
$$

CAZ031-033-041-043-047-048-061-301600-
SOUTHERN CALIFORNIA

CITY           SKY/WX    TMP DP  RH WIND       PRES   REMARKS
DOWNTOWN L.A.  SUNNY     63  55  75 CALM      29.95R
L.A. AIRPORT   MOSUNNY   60  57  89 CALM      29.96R
SAN DIEGO      MOSUNNY   60  45  57 S8        29.98R
BURBANK        SUNNY     59  41  51 CALM      29.96R
ONTARIO        MOSUNNY   59  44  57 CALM      29.96S
RIVERSIDE      SUNNY     55  45  68 CALM      29.96F
PALM SPRINGS   SUNNY     68  40  35 CALM      29.86S
EL CENTRO NAS  MOSUNNY   64  34  32 S5        29.86R
IMPERIAL       SUNNY     63  35  35 SE3       29.84S
BLYTHE         SUNNY     61  33  35 N5        29.85R
NEEDLES        SUNNY     65  27  23 CALM      29.85R
$$

NVZ020-UTZ003-301600-
SOUTHERN NEVADA-UTAH

CITY           SKY/WX    TMP DP  RH WIND       PRES   REMARKS
LAS VEGAS      MOSUNNY   62  28  27 E3        29.78F
SALT LAKE CITY CLOUDY    52  34  50 S15G23    29.75F
$$

NMZ009-TXZ055-301600-
NEW MEXICO-WEST TEXAS

CITY           SKY/WX    TMP DP  RH WIND       PRES   REMARKS
ALBUQUERQUE    CLOUDY    43  36  76 SE8       30.01F
EL PASO        MOSUNNY   53  30  41 S9        30.03R
$$


........................KEY........................
SKY/WX - SKY CONDITION/WEATHER
TMP    - TEMPERATURE IN FAHRENHEIT
DP     - DEW POINT IN FAHRENHEIT
RH     - RELATIVE HUMIDITY IN PERCENT
WIND   - DIRECTION AND SPEED IN MILES PER HOUR (MPH)
VRB    - VARIABLE WIND DIRECTION
PRES   - MEAN SEA LEVEL PRESSURE IN INCHES OF MERCURY
         F - FALLING PRESSURE   R - RISING PRESSURE
         S - STEADY PRESSURE
VSB    - VISIBILITY IN MILES
HX     - HEAT INDEX IN FAHRENHEIT
WCI    - WIND CHILL INDEX IN FAHRENHEIT
TC     - TEMPERATURE IN CELSIUS WHICH IS ALSO KNOWN AS
         TEMPERATURE IN CENTIGRADE
AFB    - AIR FORCE BASE
         LUKE AFB IS LUKE AIR FORCE BASE
         DAVIS-MONTHAN IS DAVIS-MONTHAN AIR FORCE BASE
NAS    - NAVAL AIR STATION
         EL CENTRO NAS IS EL CENTRO NAVAL AIR STATION
N/A    - NOT AVAILABLE




USA.gov is the U.S. government's official web portal to all federal, state and local government web resources and services.